Weather History for KPOF - April, 2012

Change the Weather History Date:

Sunday, April 22, 2012

  Actual Average Record
Temperature  
Mean Temperature 52 °F -  
Max Temperature 64 °F 70 °F 89 °F (1919)
Min Temperature 41 °F 48 °F 27 °F (1927)
Degree Days  
Heating Degree Days 12    
Growing Degree Days 2 (Base 50)    
Moisture  
Dew Point 43 °F    
Average Humidity 71    
Maximum Humidity 93    
Minimum Humidity 45    
Precipitation  
Precipitation 0.05 in - - ()
Sea Level Pressure  
Sea Level Pressure 29.96 in    
Wind  
Wind Speed 6 mph (NNW)    
Max Wind Speed 24 mph    
Max Gust Speed 32 mph    
Visibility 9 miles    
Events Rain , Thunderstorm    
Averages and records for this station are not official NWS values.
T = Trace of Precipitation, MM = Missing Value Source: NWS Daily Summary

Daily Weather History Graph

Daily Weather History Graph

Search for Another Location

Airport or City:

Trip Planner

Search our weather history database for the weather conditions in past years. The results will help you decide how hot, cold, wet, or windy it might be!

Date:

Astronomy

Apr. 22, 2012 Rise Set
Actual Time 6:17 AM CDT 7:42 PM CDT
Civil Twilight 5:50 AM CDT 8:09 PM CDT
Nautical Twilight 5:17 AM CDT 8:42 PM CDT
Astronomical Twilight 4:43 AM CDT 9:16 PM CDT
Moon 6:51 AM CDT (4/22) 9:16 PM CDT (4/22)
Length of Visible Light 14h 19m
Length of Day
13h 24m
New Moon, 2% of the Moon is Illuminated
Apr 22
New Moon
Apr 29
First Quarter
May 5
Full
May 12
Last Quarter
May 20
New

Hourly Weather History & Observations

Time (CDT) Temp. Dew Point Humidity Pressure Visibility Wind Dir Wind Speed Gust Speed Precip Events Conditions
12:53 AM 45.0 °F 41.0 °F 86% 29.98 in 10.0 mi Calm Calm - N/A   Clear
1:53 AM 44.1 °F 39.9 °F 85% 29.96 in 10.0 mi Calm Calm - N/A   Clear
2:53 AM 43.0 °F 39.9 °F 89% 29.93 in 10.0 mi Calm Calm - N/A   Clear
3:53 AM 42.1 °F 39.9 °F 92% 29.92 in 9.0 mi Calm Calm - N/A   Clear
4:53 AM 41.0 °F 39.0 °F 93% 29.94 in 10.0 mi Calm Calm - N/A   Partly Cloudy
5:53 AM 41.0 °F 39.0 °F 93% 29.93 in 8.0 mi Calm Calm - N/A   Clear
6:53 AM 42.1 °F 39.9 °F 92% 29.91 in 8.0 mi Calm Calm - N/A   Partly Cloudy
8:53 AM 53.1 °F 44.1 °F 71% 29.92 in 10.0 mi SW 3.5 mph - N/A   Clear
9:53 AM 55.9 °F 44.1 °F 64% 29.91 in 10.0 mi Variable 6.9 mph - N/A   Clear
10:53 AM 59.0 °F 45.0 °F 60% 29.90 in 10.0 mi NNE 3.5 mph - N/A   Clear
11:53 AM 62.1 °F 45.0 °F 53% 29.91 in 10.0 mi NNW 9.2 mph - N/A   Mostly Cloudy
12:53 PM 64.9 °F 43.0 °F 45% 29.90 in 10.0 mi NNW 15.0 mph - N/A   Partly Cloudy
1:48 PM 62.6 °F 44.6 °F 52% 29.91 in 10.0 mi North 12.7 mph 23.0 mph N/A Thunderstorm Overcast
1:53 PM 63.0 °F 44.1 °F 50% 29.91 in 10.0 mi NNW 15.0 mph - N/A Thunderstorm Overcast
1:59 PM 62.6 °F 44.6 °F 52% 29.92 in 10.0 mi North 21.9 mph 26.5 mph N/A Thunderstorm Thunderstorm
2:15 PM 51.8 °F 46.4 °F 82% 29.95 in 3.0 mi North 15.0 mph 29.9 mph 0.02 in Rain , Thunderstorm Rain
2:30 PM 53.6 °F 46.4 °F 77% 29.94 in 6.0 mi NNE 6.9 mph - 0.05 in Rain Light Rain
2:53 PM 57.9 °F 50.0 °F 75% 29.95 in 10.0 mi North 9.2 mph - 0.05 in   Scattered Clouds
3:53 PM 57.0 °F 46.0 °F 67% 29.95 in 10.0 mi North 17.3 mph 32.2 mph 0.00 in Rain Light Rain
4:53 PM 59.0 °F 46.0 °F 62% 29.96 in 10.0 mi North 24.2 mph 31.1 mph 0.00 in   Scattered Clouds
5:53 PM 55.9 °F 43.0 °F 62% 29.99 in 10.0 mi North 16.1 mph - N/A   Scattered Clouds
6:53 PM 55.9 °F 45.0 °F 67% 30.01 in 10.0 mi NNW 9.2 mph - N/A   Overcast
7:53 PM 54.0 °F 44.1 °F 69% 30.03 in 10.0 mi North 8.1 mph - N/A   Mostly Cloudy
8:53 PM 54.0 °F 39.9 °F 59% 30.05 in 10.0 mi North 12.7 mph - N/A   Overcast
9:53 PM 53.1 °F 39.0 °F 59% 30.06 in 10.0 mi NW 10.4 mph - N/A   Mostly Cloudy
10:53 PM 48.9 °F 41.0 °F 74% 30.07 in 10.0 mi WNW 8.1 mph - N/A   Clear
11:53 PM 46.9 °F 42.1 °F 83% 30.07 in 10.0 mi NW 8.1 mph - N/A   Clear